EW5684 Weather Reports


Display with metric or nautical units.
time (UTC)temp
F
wind
direction
speed
MPH
gust
MPH
rain 1hr
in
rain 24hr
in
rain mn
in
humidity
%
barometer
mb
20260503185706 66 0 0.0 2.0 0.00 0.00 0.00 38 1017.7
20260503185206 66 0 0.0 4.0 0.00 0.00 0.00 37 1017.6
20260503184705 67 0 3.0 4.0 0.00 0.00 0.00 37 1017.6
20260503184430 67 0 2.0 5.0 0.00 0.00 0.00 37 1017.6
20260503183706 67 0 2.0 5.0 0.00 0.00 0.00 37 1017.6
20260503183205 67 0 1.0 4.0 0.00 0.00 0.00 37 1017.6
20260503182930 67 0 2.0 4.0 0.00 0.00 0.00 37 1017.5
20260503182424 68 0 2.0 4.0 0.00 0.00 0.00 36 1017.5
20260503181704 68 0 3.0 4.0 0.00 0.00 0.00 36 1017.4
20260503181204 68 0 3.0 4.0 0.00 0.00 0.00 36 1017.4
20260503180921 69 0 3.0 4.0 0.00 0.00 0.00 36 1017.4
20260503180204 69 0 2.0 3.0 0.00 0.00 0.00 35 1017.5
20260503175705 69 0 1.0 4.0 0.00 0.00 0.00 35 1017.4
20260503175430 69 0 3.0 6.0 0.00 0.00 0.00 34 1017.4
20260503174705 69 0 3.0 6.0 0.00 0.00 0.00 34 1017.4
20260503174205 70 0 3.0 5.0 0.00 0.00 0.00 33 1017.3
20260503173705 70 0 1.0 3.0 0.00 0.00 0.00 33 1017.3
20260503173204 70 0 2.0 3.0 0.00 0.00 0.00 32 1017.4
20260503172705 70 0 0.0 2.0 0.00 0.00 0.00 32 1017.4
20260503172204 70 0 0.0 2.0 0.00 0.00 0.00 32 1017.5
20260503171705 70 0 0.0 3.0 0.00 0.00 0.00 32 1017.5
20260503171205 70 0 1.0 4.0 0.00 0.00 0.00 31 1017.4
20260503170704 71 0 3.0 4.0 0.00 0.00 0.00 31 1017.5
20260503170204 71 0 2.0 4.0 0.00 0.00 0.00 31 1017.4
20260503160205 72 0 2.0 4.0 0.00 0.00 0.00 29 1017.5
20260503150633 73 200 2.0 3.0 0.00 0.00 0.00 31 1017.9
20260503150354 73 125 1.0 3.0 0.00 0.00 0.00 31 1017.9
20260503140106 71 166 1.0 4.0 0.00 0.00 0.00 32 1018.5
20260503131106 71 158 2.0 3.0 0.00 0.00 0.00 32 1019.1
20260503130605 71 111 2.0 6.0 0.00 0.00 0.00 32 1019.1
20260503130106 71 155 1.0 6.0 0.00 0.00 0.00 32 1019.2
20260503120105 71 158 1.0 4.0 0.00 0.00 0.00 31 1019.6
20260503110602 73 62 3.0 5.0 0.00 0.00 0.00 32 1019.7
20260503110322 72 45 1.0 5.0 0.00 0.00 0.00 34 1019.7
20260503081557 62 0 0.0 1.0 0.00 0.00 0.00 48 1020.4
20260503081058 61 0 0.0 2.0 0.00 0.00 0.00 48 1020.4
20260503080557 61 0 1.0 3.0 0.00 0.00 0.00 49 1020.5
20260503072557 60 0 1.0 2.0 0.00 0.00 0.00 50 1020.5
20260503072058 59 0 0.0 3.0 0.00 0.00 0.00 50 1020.4
20260503071822 59 0 1.0 3.0 0.00 0.00 0.00 51 1020.5
20260503071321 59 0 2.0 3.0 0.00 0.00 0.00 51 1020.5
20260503071040 58 0 0.0 9.0 0.00 0.00 0.00 51 1020.5
20260503070317 58 0 2.0 9.0 0.00 0.00 0.00 51 1020.5
20260503060324 57 0 2.0 3.0 0.00 0.00 0.00 54 1020.2
20260503055053 55 0 0.0 5.0 0.00 0.00 0.00 55 1020.0
20260503054549 55 0 3.0 5.0 0.00 0.00 0.00 55 1020.0
20260503054052 54 0 1.0 2.0 0.00 0.00 0.00 55 1019.9
20260502235406 60 0 1.0 2.0 0.00 0.00 0.00 46 1021.2
20260502235128 61 0 0.0 0.0 0.00 0.00 0.00 46 1021.3
20260502234405 61 0 0.0 0.0 0.00 0.00 0.00 46 1021.3
20260502234133 61 0 0.0 0.0 0.00 0.00 0.00 45 1021.3
20260502233407 61 0 0.0 3.0 0.00 0.00 0.00 45 1021.3
20260502233127 61 0 0.0 3.0 0.00 0.00 0.00 45 1021.3
20260502232406 61 0 0.0 0.0 0.00 0.00 0.00 44 1021.3
20260502231906 61 0 0.0 0.0 0.00 0.00 0.00 44 1021.4
20260502231627 61 0 0.0 0.0 0.00 0.00 0.00 44 1021.5
20260502231131 62 0 0.0 0.0 0.00 0.00 0.00 44 1021.4
20260502230406 62 0 0.0 1.0 0.00 0.00 0.00 44 1021.5
20260502225906 62 0 0.0 3.0 0.00 0.00 0.00 44 1021.6
20260502225405 62 0 1.0 3.0 0.00 0.00 0.00 43 1021.5
20260502225125 62 0 2.0 3.0 0.00 0.00 0.00 43 1021.5
20260502224406 62 0 2.0 3.0 0.00 0.00 0.00 42 1021.5
20260502223906 63 0 1.0 3.0 0.00 0.00 0.00 41 1021.5
20260502223406 63 0 2.0 4.0 0.00 0.00 0.00 41 1021.5
20260502222906 63 0 3.0 4.0 0.00 0.00 0.00 40 1021.5
20260502222407 63 0 2.0 5.0 0.00 0.00 0.00 40 1021.5
20260502221905 63 0 3.0 5.0 0.00 0.00 0.00 40 1021.5
20260502221406 63 0 2.0 4.0 0.00 0.00 0.00 39 1021.6
20260502220906 63 0 2.0 6.0 0.00 0.00 0.00 39 1021.5
20260502220406 63 0 4.0 6.0 0.00 0.00 0.00 39 1021.7
20260502215906 63 0 4.0 5.0 0.00 0.00 0.00 39 1021.6
20260502215406 63 0 4.0 5.0 0.00 0.00 0.00 39 1021.6
20260502214905 63 0 3.0 5.0 0.00 0.00 0.00 39 1021.7
20260502214406 63 0 3.0 5.0 0.00 0.00 0.00 39 1021.6
20260502213906 63 0 4.0 5.0 0.00 0.00 0.00 39 1021.7
20260502213406 63 0 4.0 6.0 0.00 0.00 0.00 39 1021.6
20260502212905 63 0 3.0 6.0 0.00 0.00 0.00 39 1021.6
20260502212623 63 0 3.0 5.0 0.00 0.00 0.00 39 1021.6
20260502211906 63 0 2.0 5.0 0.00 0.00 0.00 39 1021.6
20260502211405 63 0 4.0 6.0 0.00 0.00 0.00 40 1021.6
20260502210906 64 0 5.0 6.0 0.00 0.00 0.00 40 1021.7
20260502210405 64 0 3.0 5.0 0.00 0.00 0.00 40 1021.6
20260502210113 64 0 2.0 6.0 0.00 0.00 0.00 40 1021.7
20260502205122 64 0 5.0 6.0 0.00 0.00 0.00 40 1021.7
20260502204406 64 0 3.0 6.0 0.00 0.00 0.00 40 1021.6
20260502204133 64 0 4.0 7.0 0.00 0.00 0.00 41 1021.6
20260502203405 64 0 4.0 7.0 0.00 0.00 0.00 41 1021.7
20260502203125 64 0 4.0 6.0 0.00 0.00 0.00 41 1021.7
20260502202406 65 0 3.0 6.0 0.00 0.00 0.00 40 1021.8
20260502202132 65 0 3.0 5.0 0.00 0.00 0.00 40 1021.8
20260502201625 65 0 4.0 6.0 0.00 0.00 0.00 40 1021.7
20260502200905 65 0 5.0 6.0 0.00 0.00 0.00 40 1021.7
20260502200406 65 0 2.0 4.0 0.00 0.00 0.00 40 1021.7
20260502195906 65 0 2.0 4.0 0.00 0.00 0.00 40 1021.7
20260502195630 65 0 2.0 4.0 0.00 0.00 0.00 40 1021.7
20260502194906 65 0 2.0 5.0 0.00 0.00 0.00 40 1021.7
20260502194406 66 0 3.0 5.0 0.00 0.00 0.00 39 1021.6
20260502193905 66 0 3.0 5.0 0.00 0.00 0.00 38 1021.5
20260502193406 66 0 3.0 4.0 0.00 0.00 0.00 38 1021.5
20260502193125 66 0 2.0 4.0 0.00 0.00 0.00 37 1021.5
20260502192406 66 0 2.0 5.0 0.00 0.00 0.00 37 1021.5
20260502191905 66 0 4.0 5.0 0.00 0.00 0.00 38 1021.5
20260502191406 67 0 4.0 5.0 0.00 0.00 0.00 37 1021.5
20260502190906 67 0 2.0 4.0 0.00 0.00 0.00 37 1021.3
20260502190856 68 0 2.0 3.0 0.00 0.00 0.00 37 1021.2